Wind_Speed
25 25 25 24 24 23 24 23 23 23 24 24 24 25 24 24 24 25 25 25 25 24 24 24 24 24 25 25 25 25 25 25 24 24 23 24 25 26 27 27 28 28 29
25 25 25 24 24 23 23 23 23 24 24 25 25 24 24 23 24 24 24 24 24 24 24 24 24 25 26 26 25 25 25 24 24 23 23 23 24 24 25 26 27 27 28
25 25 24 25 25 24 23 23 23 23 24 24 24 24 24 23 23 23 23 23 23 23 24 24 25 25 25 25 25 24 23 22 23 23 22 23 23 24 25 25 25 26 27
25 25 25 24 24 24 24 23 23 23 23 23 23 23 23 22 23 23 23 23 23 23 23 24 25 25 25 25 24 24 24 23 23 23 23 23 22 23 24 25 25 26 27
25 25 24 24 23 23 23 22 22 22 23 23 22 22 23 23 23 23 24 24 23 23 23 23 23 23 24 23 23 23 22 23 23 23 22 23 22 22 23 23 25 25 26
25 25 24 23 23 23 22 21 21 22 22 22 21 22 22 23 23 24 23 22 22 22 22 22 22 22 22 21 21 21 21 21 22 23 22 22 22 22 23 23 24 25 26
26 25 24 24 23 22 21 21 22 22 22 22 22 22 21 21 22 22 21 20 20 21 20 20 19 19 19 18 18 19 20 20 21 22 23 23 23 23 23 24 24 25 25
25 24 23 23 23 22 22 22 22 23 23 23 23 22 21 20 20 20 19 19 18 19 19 18 17 17 18 18 18 19 20 20 21 21 22 22 23 23 24 24 24 24 24
24 24 24 23 23 23 23 23 23 23 23 23 22 21 20 20 19 19 18 18 17 17 17 17 17 17 17 18 18 19 20 20 20 21 22 23 23 23 23 24 24 24 25
25 25 25 24 24 24 24 23 22 22 22 21 20 20 20 19 19 18 18 17 16 16 17 17 18 18 19 18 18 19 20 21 20 21 22 23 23 22 23 24 24 25 25
26 26 25 25 25 24 24 22 22 22 21 20 20 20 19 19 19 19 19 18 18 17 17 18 19 19 20 20 20 20 21 21 21 21 22 22 22 22 23 23 24 24 24
26 26 25 25 25 24 23 22 21 21 21 21 20 20 19 19 19 19 19 19 18 17 17 17 18 19 20 20 20 20 20 21 21 21 21 21 21 21 22 23 23 24 23
26 25 25 25 25 24 23 22 21 21 20 20 20 20 19 19 18 18 18 18 18 18 17 17 18 18 18 19 19 20 20 21 20 21 21 21 21 21 22 22 22 23 22
25 25 26 26 25 24 22 21 20 20 20 19 19 19 18 18 17 17 17 17 17 18 17 17 17 16 17 18 19 20 20 19 20 20 20 20 21 21 22 22 22 22 22
25 26 26 26 24 23 22 21 20 19 19 19 19 19 19 18 17 17 16 16 16 16 16 15 16 16 17 18 18 18 19 19 20 20 20 20 20 20 20 21 22 21 21
26 27 26 25 24 22 21 20 20 20 19 19 19 18 18 18 17 16 16 15 15 15 15 15 15 15 16 16 17 18 18 18 18 19 20 20 19 19 19 20 20 20 20
26 26 25 24 23 21 21 21 20 19 19 18 18 17 17 17 16 16 16 16 15 15 14 14 14 14 14 15 15 16 16 16 17 17 18 19 19 19 19 19 20 20 20
26 25 24 23 22 21 21 20 20 19 18 18 18 17 17 16 16 15 15 15 14 13 13 13 14 14 14 13 14 15 16 16 17 18 18 18 18 18 18 19 19 20 20
26 25 24 23 22 21 20 20 19 19 19 18 18 18 17 17 16 15 15 15 14 14 13 14 14 14 14 14 15 16 17 16 17 17 17 17 18 17 18 18 18 19 19
25 25 24 23 22 22 20 20 20 20 19 18 18 18 17 17 16 15 15 14 15 15 14 14 13 13 14 15 15 16 16 17 17 17 17 17 18 17 18 18 18 18 19
25 24 24 23 22 21 21 21 20 19 18 18 18 18 18 17 16 15 14 14 14 14 15 14 13 13 14 14 13 14 15 16 17 17 18 18 18 18 18 18 18 18 17
24 24 23 22 21 21 21 21 20 19 18 18 18 17 17 16 16 15 15 14 14 14 14 13 13 12 13 13 13 14 15 15 16 16 17 17 18 18 18 18 17 16 15
24 22 22 21 21 21 21 20 20 19 19 18 17 17 17 16 16 15 15 14 14 14 14 13 13 13 13 13 14 14 14 15 15 15 16 16 17 17 17 17 16 16 15
22 21 21 21 21 20 20 19 19 19 19 18 17 17 17 16 15 14 14 14 14 14 13 13 13 14 14 14 14 14 14 14 14 14 15 16 16 16 16 16 16 15 14
21 21 20 20 20 19 19 19 19 19 18 17 17 16 15 14 14 13 14 15 14 14 14 13 14 14 14 14 14 14 14 14 15 14 14 15 15 15 15 15 15 14 13
21 20 20 20 20 18 18 19 18 17 16 15 14 14 14 13 14 14 14 15 15 14 14 14 15 15 15 14 14 14 13 13 14 14 14 15 15 15 15 14 14 14 13
Wind_Direction
314 312 311 309 308 308 307 304 300 298 295 292 291 291 287 283 281 279 279 278 276 273 271 267 268 270 269 268 266 266 267 266 264 262 263 264 263 263 264 263 261 259 259
314 313 312 311 310 309 309 305 303 300 297 294 292 292 288 284 283 283 282 280 276 272 270 269 270 269 268 267 267 267 265 264 262 261 262 265 264 263 264 263 263 261 262
317 314 311 311 311 310 309 305 303 302 301 298 294 293 290 286 286 288 286 283 276 271 269 270 271 268 268 268 268 266 265 264 263 262 264 266 264 265 264 263 263 263 264
317 317 315 313 312 311 310 307 305 305 305 303 299 296 293 290 288 289 287 284 278 273 271 270 269 268 268 269 269 265 264 262 263 262 262 263 263 263 264 264 264 265 267
318 317 314 313 311 310 309 307 306 306 305 304 301 297 295 294 292 290 286 284 280 276 272 270 268 267 269 268 268 266 264 262 261 261 262 262 265 265 265 265 266 268 269
318 317 315 312 310 309 308 309 307 306 305 304 301 299 297 296 296 292 288 284 282 278 274 271 269 269 269 267 266 263 263 263 261 264 264 266 267 268 267 268 267 267 268
317 316 315 313 312 311 310 309 308 307 306 305 304 303 299 298 297 296 291 286 285 281 276 272 271 269 267 266 263 260 262 264 264 264 264 266 267 269 269 269 269 271 270
317 315 314 312 311 310 309 309 307 305 305 306 307 304 300 299 298 297 294 290 286 282 277 273 268 268 268 267 264 262 263 266 265 265 266 266 268 268 269 269 270 272 272
316 315 313 310 308 308 308 308 307 306 306 307 309 306 301 299 297 296 295 291 287 283 277 272 268 270 270 268 266 263 264 266 266 267 268 268 270 270 269 270 272 274 274
314 313 312 311 311 310 309 308 308 309 309 310 310 308 305 301 300 297 295 291 287 283 279 273 270 270 270 270 267 265 266 266 267 267 268 269 269 268 269 270 273 276 277
314 314 313 313 313 311 311 310 309 309 308 308 309 309 307 303 302 299 296 292 288 285 282 276 271 269 269 268 270 269 267 267 267 267 267 269 269 269 269 271 275 277 278
314 315 315 315 314 312 311 309 307 306 306 307 308 308 306 302 299 298 297 293 289 286 284 280 274 272 271 271 272 270 269 269 268 269 270 271 270 270 271 274 276 277 278
314 315 315 316 314 312 310 309 308 307 306 308 307 307 307 303 299 296 295 292 289 288 286 282 276 273 270 270 272 270 271 271 270 271 270 270 268 269 271 274 276 278 278
314 315 315 314 314 312 311 310 308 308 308 308 308 308 309 307 302 298 297 294 293 292 287 280 277 274 272 271 270 270 271 271 270 270 270 269 268 270 272 274 276 276 278
314 314 315 315 315 314 313 312 310 309 311 310 308 309 309 309 308 306 302 299 294 292 289 285 280 277 274 272 270 269 269 270 270 269 269 270 271 273 274 275 276 277 278
313 313 313 313 313 314 313 312 310 310 310 309 308 309 311 312 311 308 305 303 299 295 293 289 286 281 278 274 271 271 272 271 271 272 272 272 272 275 277 278 278 279 281
310 311 311 312 313 312 312 312 311 311 310 309 308 309 311 311 311 309 306 307 303 298 295 293 290 287 283 280 275 272 270 270 270 273 275 275 273 275 277 279 282 284 285
310 310 310 310 311 310 310 311 312 312 311 310 309 308 309 308 307 305 304 305 305 299 297 298 295 292 288 284 279 274 272 271 269 270 275 275 272 274 277 279 282 287 289
305 306 307 308 308 308 307 309 310 311 311 311 308 307 309 308 306 305 303 303 302 301 300 300 298 294 291 286 280 276 272 271 271 272 273 272 270 272 277 279 282 287 290
301 302 303 304 304 304 305 306 306 307 307 307 307 307 308 307 304 302 301 299 300 302 303 302 301 300 297 291 284 278 274 273 275 276 274 271 270 272 275 278 282 286 290
300 300 300 301 302 301 301 303 303 302 303 304 306 306 308 306 304 302 300 299 299 301 301 302 303 300 299 297 291 283 279 277 278 276 274 272 272 273 274 277 282 286 290
301 300 299 299 300 300 299 299 300 301 302 302 303 303 305 305 302 302 304 303 303 304 303 303 304 302 300 298 292 287 285 283 280 277 276 276 277 277 277 277 279 280 286
301 299 298 297 298 299 297 296 299 300 301 300 299 298 300 301 301 301 303 308 308 306 304 307 309 307 302 297 295 293 290 287 282 278 280 281 281 280 279 277 276 278 282
301 298 296 296 299 300 299 297 297 297 298 296 297 295 296 297 296 297 301 307 309 307 305 304 306 309 308 303 298 297 295 292 288 285 285 285 284 283 281 278 276 278 282
300 298 297 298 300 302 302 301 298 296 296 294 293 292 293 290 289 291 296 303 307 305 304 306 308 308 307 307 306 303 298 296 293 288 287 287 285 283 280 278 279 280 284
299 297 297 301 301 301 301 302 302 299 299 297 293 289 290 287 288 291 294 299 302 302 303 304 307 307 307 310 310 310 304 300 296 290 290 290 287 283 279 277 278 280 283
Height
5769 5766 5762 5759 5755 5752 5750 5747 5745 5743 5741 5739 5737 5735 5734 5733 5732 5731 5730 5729 5728 5729 5729 5730 5731 5731 5732 5733 5733 5734 5735 5736 5738 5740 5741 5743 5744 5746 5747 5749 5750 5752 5753
5764 5761 5757 5753 5750 5747 5744 5741 5739 5737 5734 5732 5730 5728 5727 5726 5725 5723 5722 5722 5721 5721 5721 5722 5723 5723 5724 5724 5725 5726 5726 5728 5730 5732 5734 5735 5737 5738 5740 5741 5742 5743 5745
5759 5756 5752 5748 5745 5742 5739 5736 5733 5731 5729 5726 5724 5722 5720 5719 5718 5717 5715 5714 5714 5714 5714 5715 5715 5715 5716 5716 5717 5718 5719 5720 5722 5724 5727 5728 5729 5731 5732 5733 5734 5736 5736
5755 5751 5747 5744 5740 5737 5734 5731 5728 5726 5723 5721 5718 5716 5714 5713 5711 5710 5709 5707 5707 5707 5707 5707 5708 5708 5709 5709 5710 5710 5712 5713 5715 5717 5719 5721 5722 5723 5725 5726 5727 5728 5729
5750 5746 5743 5739 5736 5733 5729 5726 5723 5721 5718 5716 5713 5711 5709 5707 5705 5703 5702 5701 5700 5700 5700 5700 5701 5701 5701 5702 5703 5704 5705 5707 5709 5710 5712 5714 5715 5716 5718 5719 5719 5720 5721
5745 5741 5738 5734 5731 5728 5725 5722 5719 5716 5714 5711 5709 5706 5703 5701 5699 5697 5695 5694 5693 5693 5693 5693 5694 5694 5695 5695 5696 5698 5699 5701 5703 5704 5706 5707 5709 5710 5711 5711 5712 5713 5713
5740 5736 5733 5729 5726 5724 5721 5718 5715 5712 5709 5706 5703 5701 5698 5696 5693 5691 5689 5688 5687 5687 5686 5687 5687 5688 5689 5689 5691 5692 5694 5695 5697 5698 5699 5701 5702 5703 5704 5704 5705 5705 5705
5736 5732 5728 5725 5722 5719 5716 5713 5710 5707 5704 5701 5698 5695 5693 5690 5688 5686 5684 5683 5682 5681 5681 5681 5682 5683 5683 5684 5685 5687 5688 5689 5691 5692 5693 5694 5695 5696 5696 5697 5697 5697 5697
5731 5727 5724 5721 5718 5715 5712 5708 5705 5702 5700 5697 5694 5691 5688 5686 5684 5682 5680 5678 5677 5676 5676 5676 5677 5678 5679 5679 5680 5681 5683 5683 5684 5686 5687 5688 5688 5689 5689 5689 5690 5690 5690
5727 5723 5719 5716 5713 5710 5707 5703 5700 5697 5694 5692 5689 5686 5683 5681 5679 5677 5675 5674 5673 5672 5671 5671 5672 5672 5673 5674 5675 5676 5677 5678 5678 5679 5680 5681 5681 5682 5682 5682 5682 5682 5682
5722 5719 5715 5711 5708 5705 5701 5698 5695 5692 5690 5687 5684 5682 5679 5676 5674 5672 5670 5669 5668 5667 5666 5666 5666 5667 5667 5668 5669 5670 5670 5671 5672 5673 5673 5674 5674 5675 5675 5675 5675 5675 5674
5718 5714 5710 5707 5703 5700 5696 5694 5691 5688 5685 5682 5680 5677 5674 5671 5669 5667 5665 5664 5662 5661 5661 5661 5661 5661 5662 5662 5663 5663 5664 5665 5665 5666 5667 5667 5667 5668 5668 5668 5668 5667 5666
5713 5710 5706 5702 5699 5695 5692 5689 5686 5683 5680 5678 5675 5672 5669 5667 5664 5662 5660 5658 5657 5656 5655 5655 5655 5655 5655 5656 5656 5657 5657 5658 5659 5659 5660 5660 5661 5661 5661 5661 5660 5660 5659
5709 5705 5701 5697 5694 5690 5687 5684 5681 5678 5676 5673 5670 5668 5665 5662 5659 5657 5655 5653 5652 5650 5649 5649 5649 5649 5649 5649 5650 5650 5651 5651 5652 5652 5653 5653 5654 5654 5654 5654 5653 5653 5652
5704 5700 5696 5693 5689 5685 5682 5679 5677 5674 5671 5669 5666 5663 5661 5658 5655 5653 5650 5649 5647 5645 5644 5643 5643 5643 5643 5643 5644 5644 5644 5645 5645 5646 5646 5646 5647 5647 5647 5647 5646 5646 5645
5698 5695 5691 5688 5684 5681 5678 5676 5673 5670 5667 5664 5662 5659 5656 5654 5651 5649 5646 5644 5642 5641 5639 5638 5637 5637 5637 5637 5637 5637 5637 5638 5638 5639 5639 5640 5640 5640 5640 5640 5639 5639 5638
5693 5690 5686 5683 5679 5676 5674 5671 5668 5666 5663 5660 5658 5655 5652 5650 5647 5645 5643 5640 5638 5636 5635 5633 5632 5631 5631 5630 5631 5631 5632 5632 5632 5633 5633 5633 5633 5633 5633 5633 5633 5632 5631
5687 5684 5681 5678 5675 5672 5669 5666 5664 5661 5659 5656 5653 5651 5648 5646 5644 5641 5639 5636 5634 5632 5630 5629 5628 5627 5626 5625 5625 5625 5626 5626 5626 5627 5627 5626 5626 5627 5627 5626 5626 5625 5624
5680 5678 5675 5672 5670 5667 5664 5661 5659 5657 5654 5651 5649 5647 5644 5642 5639 5637 5634 5632 5630 5628 5627 5625 5623 5622 5621 5620 5620 5620 5620 5620 5620 5620 5620 5620 5620 5620 5620 5620 5619 5619 5618
5673 5671 5668 5666 5664 5661 5659 5656 5654 5652 5649 5647 5644 5642 5640 5637 5635 5633 5630 5628 5626 5624 5622 5621 5619 5618 5617 5615 5615 5614 5614 5614 5614 5614 5614 5614 5614 5614 5614 5614 5613 5612 5611
5666 5664 5661 5659 5658 5655 5653 5651 5649 5646 5644 5642 5640 5637 5635 5633 5631 5628 5626 5624 5622 5620 5618 5617 5615 5614 5612 5611 5610 5609 5608 5608 5608 5608 5608 5608 5608 5608 5608 5607 5607 5606 5605
5659 5656 5654 5653 5651 5649 5647 5645 5643 5641 5639 5637 5635 5633 5630 5628 5626 5624 5622 5620 5618 5616 5614 5613 5611 5610 5608 5607 5605 5604 5603 5603 5602 5602 5602 5602 5602 5601 5601 5601 5600 5600 5600
5652 5650 5648 5646 5644 5643 5641 5639 5637 5635 5633 5631 5629 5628 5626 5624 5622 5620 5618 5616 5614 5612 5610 5609 5607 5606 5604 5603 5601 5599 5598 5597 5597 5596 5596 5596 5596 5596 5595 5595 5595 5594 5594
5646 5644 5642 5640 5638 5636 5634 5632 5631 5629 5627 5626 5624 5623 5621 5620 5618 5616 5615 5613 5611 5609 5607 5606 5604 5603 5601 5599 5597 5595 5593 5592 5591 5591 5591 5591 5591 5590 5590 5589 5589 5589 5589
5640 5638 5636 5634 5632 5630 5629 5627 5625 5623 5622 5620 5619 5618 5616 5615 5613 5612 5611 5609 5607 5606 5604 5603 5601 5599 5597 5595 5593 5591 5589 5588 5587 5586 5585 5585 5585 5585 5585 5585 5585 5584 5584
5634 5632 5630 5629 5627 5625 5623 5622 5620 5618 5616 5615 5614 5612 5611 5610 5609 5608 5607 5605 5604 5602 5601 5599 5597 5595 5594 5592 5590 5587 5585 5584 5583 5581 5581 5581 5580 5580 5580 5580 5580 5580 5579